Time,TemperatureF,DewpointF,PressureIn,WindDirection,WindDirectionDegrees,WindSpeedMPH,WindSpeedGustMPH,Humidity,HourlyPrecipIn,Conditions,Clouds,dailyrainin,SoftwareType,DateUTC
2017-10-17 00:00:00,48.6,46.0,30.09,NNE,23,1.0,-999.0,91,0.00,,,0.00,,2017-10-17 07:00:00,
2017-10-17 00:06:00,48.5,46.0,30.09,NNE,23,1.0,-999.0,93,0.00,,,0.00,,2017-10-17 07:06:00,
2017-10-17 00:11:00,48.5,46.0,30.09,NNE,23,0.0,-999.0,93,0.00,,,0.00,,2017-10-17 07:11:00,
2017-10-17 00:17:00,48.5,46.0,30.09,NNE,23,1.0,-999.0,93,0.00,,,0.00,,2017-10-17 07:17:00,
2017-10-17 00:22:00,48.5,46.0,30.09,NNE,23,1.0,-999.0,93,0.00,,,0.00,,2017-10-17 07:22:00,
2017-10-17 00:28:00,48.6,47.0,30.09,NNE,23,1.0,-999.0,93,0.00,,,0.00,,2017-10-17 07:28:00,
2017-10-17 00:33:00,48.6,47.0,30.09,NNE,23,0.0,-999.0,93,0.00,,,0.00,,2017-10-17 07:33:00,
2017-10-17 00:39:00,48.6,47.0,30.09,NE,45,0.0,-999.0,93,0.00,,,0.00,,2017-10-17 07:39:00,
2017-10-17 00:44:00,48.6,47.0,30.09,NNE,23,0.0,-999.0,93,0.00,,,0.00,,2017-10-17 07:44:00,
2017-10-17 00:50:00,48.6,47.0,30.09,NNE,23,1.0,-999.0,93,0.00,,,0.00,,2017-10-17 07:50:00,
2017-10-17 00:55:00,48.6,47.0,30.09,North,0,1.0,-999.0,93,0.00,,,0.00,,2017-10-17 07:55:00,
2017-10-17 01:01:00,48.6,47.0,30.08,NNW,338,0.0,-999.0,93,0.00,,,0.00,,2017-10-17 08:01:00,
2017-10-17 01:08:00,48.6,47.0,30.09,North,0,1.0,-999.0,93,0.00,,,0.00,,2017-10-17 08:08:00,
2017-10-17 01:13:00,48.6,47.0,30.08,NNE,23,1.0,-999.0,93,0.00,,,0.00,,2017-10-17 08:13:00,
2017-10-17 01:19:00,48.6,47.0,30.08,NNW,338,1.0,-999.0,93,0.00,,,0.00,,2017-10-17 08:19:00,
2017-10-17 01:24:00,48.2,46.0,30.08,NNE,23,0.0,-999.0,93,0.00,,,0.00,,2017-10-17 08:24:00,
2017-10-17 01:30:00,48.0,46.0,30.08,NNE,23,0.0,-999.0,93,0.00,,,0.00,,2017-10-17 08:30:00,
2017-10-17 01:35:00,47.7,46.0,30.08,North,0,1.0,-999.0,93,0.00,,,0.00,,2017-10-17 08:35:00,
2017-10-17 01:41:00,47.5,45.0,30.09,NNE,23,1.0,-999.0,93,0.00,,,0.00,,2017-10-17 08:41:00,
2017-10-17 01:46:00,47.3,45.0,30.08,NNW,338,1.0,-999.0,93,0.00,,,0.00,,2017-10-17 08:46:00,
2017-10-17 01:52:00,46.9,44.0,30.09,NE,45,0.0,-999.0,93,0.00,,,0.00,,2017-10-17 08:52:00,
2017-10-17 01:57:00,47.3,45.0,30.09,NE,45,0.0,-999.0,93,0.00,,,0.00,,2017-10-17 08:57:00,
2017-10-17 02:03:00,47.5,45.0,30.09,NE,45,0.0,-999.0,93,0.00,,,0.00,,2017-10-17 09:03:00,
2017-10-17 02:08:00,47.5,45.0,30.09,NNE,23,0.0,-999.0,93,0.00,,,0.00,,2017-10-17 09:08:00,
2017-10-17 02:14:00,47.3,45.0,30.09,NNW,338,0.0,-999.0,93,0.00,,,0.00,,2017-10-17 09:14:00,
2017-10-17 02:19:00,46.9,45.0,30.08,NNE,23,1.0,-999.0,93,0.00,,,0.00,,2017-10-17 09:19:00,
2017-10-17 02:25:00,46.4,44.0,30.09,NNE,23,1.0,-999.0,93,0.00,,,0.00,,2017-10-17 09:25:00,
2017-10-17 02:31:00,46.1,44.0,30.09,NE,45,0.0,-999.0,93,0.00,,,0.00,,2017-10-17 09:31:00,
2017-10-17 02:36:00,46.4,44.0,30.09,NNE,23,1.0,-999.0,93,0.00,,,0.00,,2017-10-17 09:36:00,
2017-10-17 02:42:00,46.4,44.0,30.09,NNE,23,0.0,-999.0,93,0.00,,,0.00,,2017-10-17 09:42:00,
2017-10-17 02:47:00,46.1,44.0,30.09,North,0,1.0,-999.0,93,0.00,,,0.00,,2017-10-17 09:47:00,
2017-10-17 02:53:00,45.9,44.0,30.09,NNE,23,0.0,-999.0,93,0.00,,,0.00,,2017-10-17 09:53:00,
2017-10-17 02:58:00,45.9,44.0,30.09,NNW,338,0.0,-999.0,93,0.00,,,0.00,,2017-10-17 09:58:00,
2017-10-17 03:04:00,45.5,43.0,30.09,NE,45,1.0,-999.0,93,0.00,,,0.00,,2017-10-17 10:04:00,